Flag for Zimbabwe Weather past 2 weeks in Harare, Zimbabwe

Now
68 °F

Passing clouds.


Feels Like: 68 °F
Forecast: 45 / 69 °F
Wind: 13 mph from East

Location: Harare Kutsaga Airport

Current Time: Jul 1, 2015 at 2:15:31 PM

Latest Report: Jul 1, 2015 at 1:00 PM


Visibility: N/A

Pressure: 30.36 "Hg

Humidity: 35%

Dew point: 39 °F

Location of HarareLocation

Historic Weather in Harare — Graph

°F

Harare temperature yesterday

Maximum temperature yesterday: 70 °F (at 2:00 PM)
Minimum temperature yesterday: 43 °F (at 3:00 AM)
Average temperature yesterday: 58 °F

Past Weeks' High & Low Weather Summary

 TemperatureHumidityPressure
High73 °F (Jun 17, 2:00 PM)100% (Jun 19, 4:00 AM)30.48 "Hg (Jun 19, 4:00 AM)
Low39 °F (Jul 1, 5:00 AM)23% (Jun 16, 3:00 PM)30.09 "Hg (Jun 17, 3:00 AM)
Average57 °F60%30.33 "Hg
* Reported Jun 16 1:00 PM — Jul 1 1:00 PM, Harare, Weather by CustomWeather, © 2015

Note: Actual official high and low records may vary slightly from our data, if they occured in-between our weather recording intervals... More about our weather records

Advertising

Harare weather history for previous 24 hours

 ConditionsComfort  
Time TempWeatherWind HumidityBarometerVisibility
1:00 PM
Wed, Jul 1
68 °FPassing clouds.13 mph35%30.36 "HgN/A
12:00 PM66 °FPassing clouds.13 mph37%30.39 "HgN/A
11:00 AM63 °FPassing clouds.13 mph42%30.42 "HgN/A
10:00 AM61 °FPassing clouds.12 mph48%30.42 "HgN/A
8:00 AM52 °FSunny.7 mph77%30.42 "Hg10 mi
7:00 AM46 °FSunny.8 mph100%30.39 "Hg10 mi
6:00 AM41 °FClear.7 mph100%30.36 "Hg10 mi
5:00 AM39 °FClear.6 mph100%30.36 "Hg10 mi
4:00 AM41 °FClear.6 mph100%30.36 "Hg10 mi
3:00 AM43 °FClear.5 mph93%30.36 "Hg10 mi
2:00 AM46 °FClear.8 mph82%30.36 "Hg10 mi
1:00 AM46 °FClear.7 mph82%30.36 "Hg10 mi
12:00 AM48 °FClear.8 mph76%30.39 "Hg10 mi
11:00 PM
Tue, Jun 30
50 °FClear.9 mph71%30.39 "Hg10 mi
9:00 PM52 °FClear.8 mph67%30.39 "Hg10 mi
8:00 PM54 °FClear.7 mph63%30.36 "Hg10 mi
7:00 PM57 °FClear.6 mph51%30.33 "Hg10 mi
6:00 PM61 °FClear.8 mph45%30.33 "Hg10 mi
5:00 PM68 °FSunny.7 mph35%30.30 "Hg10 mi
4:00 PM70 °FSunny.7 mph33%30.30 "Hg10 mi
3:00 PM70 °FSunny.9 mph35%30.30 "Hg10 mi
2:00 PM70 °FSunny.7 mph33%30.30 "Hg10 mi
Weather by CustomWeather, © 2015

See weather overviewHow to use our weather pages